NOAA 16 DEB, 42399

Orbit data source: Space-Track

NOAA 16 DEB, 42399 is space debris in SSO originally from a launch on Thu, 21 Sep 2000 UTC launched from the Air Force Western Test Range (AFWTR). Debris objects in space refer to the collection of defunct objects orbiting the Earth. Examples of debris include non-operational satellites, rocket bodies, and fragments generated from explosions, collisions, or faulty payload assembly.

Loading next visibility...
Identifier
42399, 2000-055ST
Orbit
SSO
Country
Flag of USUS
Related business
Manufacturer
Unknown
Mission
Spacecraft
Bus & Motor
Unknown
Mass
Unknown
Launch date (UTC)
2000-09-21 (26 years ago)
Launch vehicle
Unknown
Launch site
Air Force Western Test Range (AFWTR)
Object type
Payload
Rocket body
Debris
Shape & HBR
Unknown shape, 0.1 m
Radar Cross Section
Medium (>0.1 m² and <1 m²)

Expand to show TLE details & history
Last TLE update: 23 hours ago

TLE from 23 hours ago
0 NOAA 16 DEB
1 42399U 00055ST  26193.43127082  .00001584  00000-0  66382-3 0  9991
2 42399  98.6634 262.0204 0008958 314.7295  45.3155 14.27381353532484
Epoch: 2026-07-12T10:21Z
TLE epoch observation values (Epoch: 2026-07-12T10:21:01.798Z)
Latitude
-0.00012°
Longitude
176.43269°
Altitude
798.903 km
Speed
7.456 km/s
True Right ascension
17h 28m 04s
True Declination
0° 00' 00"
Sunlit
Object was in full shadow at epoch
Visualization orbit readout
Latitude
Unknown
Longitude
Unknown
Altitude
Unknown
Speed
Unknown
Apparent Right ascension
Unknown
Apparent Declination
Unknown
Sunlit
N/A
Visualization observer readout
Local Sidereal Time
21:50:26
Azimuth
Unknown
Elevation
Unknown
Doppler factor
Unknown
Orbital elements
Apogee altitude
804.072 km
Perigee altitude
791.216 km
Semi-major axis
7,175.781 km
Eccentricity
0.0009
Inclination
98.6634°
RAAN
262.0204°
Arg. of periapsis
314.7295°
True anomaly
45.38854°
Mean anomaly
45.3155°
Eccentric anomaly
45.35201°
Mean motion
3.57059 °/min
Orbital period
100.82 mins
BSTAR
0.00066382
Loading maneuver chart data...
Computing Atmospheric mass density...
Loading historical data...
Loading historical data...
Loading historical data...
Loading historical data...
Loading historical data...
Loading historical data...
Loading historical data...

Documentation

Showing up to 5 results
|